User: anonymous   Login
Location: Ocean City
(38.3360°N, 75.0850°W)
Time: 06:53:23
(UTC-04:00)
Language:

STARS - Orbit

View from above orbital plane
View from above orbital plane
View from above satellite
View from above satellite

Ground track
Ground track

The orbit data is extracted from the following two-line orbital elements,

1 33498U 09002G   19288.15086588  .00000174  00000-0  31091-4 0  9997
2 33498  98.2934 141.0920 0011566 143.3330 216.8673 14.79033874577511
Epoch (UTC): 15 October 2019 03:37:14
Eccentricity: 0.0011566
inclination: 98.2934°
perigee height: 624 km
apogee height: 640 km
right ascension of ascending node: 141.0920°
argument of perigee: 143.3330°
revolutions per day: 14.79033874
mean anomaly at epoch: 216.8673°
orbit number at epoch: 57751

The dashed part of the orbit path shows where the satellite is in the earth's shadow,  

DLR